Terminal Aerodrome Forecast
Issued by NWS Cleveland, OH

Home | Current Version | Previous Version | Graphics & Text | Print | Product List | Glossary On
Versions: 1 2 3 4 5 6 7 8 9 10 11 12 13 14 15
000
FTUS41 KCLE 031542 AAA
TAFYNG
TAF AMD
KYNG 031542Z 0316/0412 27010G18KT P6SM BKN035
      TEMPO 0321/0323 3SM -TSRA OVC035CB
     FM032300 25005KT P6SM SCT250=

USA.gov is the U.S. government's official web portal to all federal, state and local government web resources and services.